When you browse on this site, cookies collect data to enhance your experience and personalize the content and advertising you see.
Visit our Privacy Policy to learn more. By continuing to use the site, you agree to this use of cookies and data.
  • Em Portugal
  • Lista de países
  • Para 7 dias
  • Temperatura da água
  • Mapas de satélite
  • Mapa do tempo
  • Widgets de tempo
  • user-avatar
    Iniciar Sessão

    Previsão horária em Laskowskie

    Hoje, 27 Março, Quarta-feira

    Tempo Temperatura Precipitação Vento Pressão Humidade
    00:00 -5°C° 0 mm 5 m/s 738 mmHg 84%
    01:00 -6°C° 0 mm 5 m/s 738 mmHg 84%
    02:00 -7°C° 0 mm 4 m/s 739 mmHg 85%
    03:00 -7°C° 0 mm 4 m/s 740 mmHg 86%
    04:00 -6°C° 0 mm 3 m/s 740 mmHg 87%
    05:00 -6°C° 0 mm 3 m/s 741 mmHg 88%
    06:00 -6°C° 0 mm 3 m/s 742 mmHg 85%
    07:00 -5°C° 0 mm 3 m/s 742 mmHg 81%
    08:00 -4°C° 0 mm 3 m/s 743 mmHg 77%
    09:00 -2°C° 0 mm 3 m/s 743 mmHg 75%
    10:00 -1°C° 0 mm 3 m/s 743 mmHg 72%
    11:00 0°C° 0 mm 4 m/s 743 mmHg 69%
    12:00 +1°C° 0.1 mm 3 m/s 744 mmHg 68%
    13:00 +2°C° 0.1 mm 3 m/s 744 mmHg 66%
    14:00 +2°C° 0.1 mm 3 m/s 744 mmHg 64%
    15:00 +3°C° 0.1 mm 3 m/s 744 mmHg 65%
    16:00 +3°C° 0.1 mm 3 m/s 744 mmHg 65%
    17:00 +4°C° 0.1 mm 2 m/s 744 mmHg 65%
    18:00 +3°C° 0 mm 2 m/s 744 mmHg 69%
    19:00 +3°C° 0 mm 1 m/s 744 mmHg 73%
    20:00 +2°C° 0 mm 1 m/s 744 mmHg 76%
    21:00 +2°C° 0 mm 1 m/s 744 mmHg 78%
    22:00 +2°C° 0 mm 1 m/s 744 mmHg 80%
    23:00 +1°C° 0 mm 2 m/s 744 mmHg 82%

    Amanhã, 28 Março, Quinta-feira

    Tempo Temperatura Precipitação Vento Pressão Humidade
    00:00 -1°C° 0 mm 2 m/s 745 mmHg 84%
    01:00 -1°C° 0 mm 2 m/s 745 mmHg 85%
    02:00 -1°C° 0 mm 2 m/s 745 mmHg 87%
    03:00 -1°C° 0 mm 2 m/s 745 mmHg 88%
    04:00 -2°C° 0 mm 2 m/s 745 mmHg 88%
    05:00 -2°C° 0 mm 2 m/s 745 mmHg 89%
    06:00 -1°C° 0 mm 2 m/s 746 mmHg 87%
    07:00 +1°C° 0 mm 2 m/s 746 mmHg 85%
    08:00 +1°C° 0 mm 2 m/s 746 mmHg 83%
    09:00 +3°C° 0 mm 2 m/s 747 mmHg 79%
    10:00 +4°C° 0 mm 2 m/s 747 mmHg 74%
    11:00 +6°C° 0 mm 2 m/s 748 mmHg 70%
    12:00 +6°C° 0 mm 2 m/s 748 mmHg 69%
    13:00 +7°C° 0 mm 2 m/s 748 mmHg 69%
    14:00 +7°C° 0 mm 2 m/s 748 mmHg 68%
    15:00 +7°C° 0 mm 2 m/s 748 mmHg 70%
    16:00 +7°C° 0 mm 2 m/s 748 mmHg 73%
    17:00 +6°C° 0 mm 2 m/s 748 mmHg 75%
    18:00 +6°C° 0 mm 2 m/s 748 mmHg 78%
    19:00 +5°C° 0 mm 2 m/s 748 mmHg 81%
    20:00 +4°C° 0 mm 2 m/s 748 mmHg 85%
    21:00 +4°C° 0 mm 2 m/s 748 mmHg 87%
    22:00 +3°C° 0 mm 2 m/s 748 mmHg 89%
    23:00 +3°C° 0 mm 2 m/s 748 mmHg 91%

    Depois de amanhã, 29 Março, Sexta-feira

    Tempo Temperatura Precipitação Vento Pressão Humidade
    00:00 +1°C° 0 mm 3 m/s 748 mmHg 92%
    01:00 +1°C° 0 mm 3 m/s 748 mmHg 92%
    02:00 +1°C° 0 mm 3 m/s 748 mmHg 93%
    03:00 +1°C° 0 mm 3 m/s 748 mmHg 93%
    04:00 +1°C° 0 mm 3 m/s 747 mmHg 93%
    05:00 0°C° 0 mm 4 m/s 747 mmHg 93%
    06:00 +1°C° 0 mm 4 m/s 747 mmHg 91%
    07:00 +1°C° 0 mm 5 m/s 747 mmHg 90%
    08:00 +2°C° 0 mm 5 m/s 746 mmHg 88%
    09:00 +3°C° 0 mm 5 m/s 746 mmHg 89%
    10:00 +3°C° 0 mm 5 m/s 746 mmHg 89%
    11:00 +4°C° 0 mm 6 m/s 746 mmHg 90%
    12:00 +5°C° 0 mm 6 m/s 746 mmHg 85%
    13:00 +8°C° 0 mm 6 m/s 746 mmHg 80%
    14:00 +9°C° 0 mm 6 m/s 746 mmHg 75%
    15:00 +9°C° 0 mm 6 m/s 745 mmHg 72%
    16:00 +10°C° 0 mm 6 m/s 745 mmHg 70%
    17:00 +10°C° 0 mm 6 m/s 745 mmHg 68%
    18:00 +9°C° 0 mm 6 m/s 745 mmHg 73%
    19:00 +7°C° 0 mm 5 m/s 745 mmHg 78%
    20:00 +6°C° 0 mm 4 m/s 744 mmHg 84%
    21:00 +5°C° 0 mm 5 m/s 744 mmHg 83%
    22:00 +5°C° 0 mm 5 m/s 744 mmHg 83%
    23:00 +3°C° 0 mm 6 m/s 744 mmHg 83%

    30 Março, Sábado

    Tempo Temperatura Precipitação Vento Pressão Humidade
    00:00 +3°C° 0 mm 6 m/s 744 mmHg 84%
    01:00 +3°C° 0 mm 6 m/s 744 mmHg 86%
    02:00 +3°C° 0 mm 6 m/s 743 mmHg 87%
    03:00 +2°C° 0 mm 6 m/s 743 mmHg 88%
    04:00 +2°C° 0 mm 5 m/s 743 mmHg 90%
    05:00 +2°C° 0 mm 5 m/s 743 mmHg 91%
    06:00 +2°C° 0 mm 6 m/s 743 mmHg 88%
    07:00 +3°C° 0 mm 6 m/s 743 mmHg 86%
    08:00 +4°C° 0 mm 6 m/s 743 mmHg 83%
    09:00 +5°C° 0 mm 6 m/s 743 mmHg 76%
    10:00 +6°C° 0 mm 7 m/s 743 mmHg 69%
    11:00 +9°C° 0 mm 7 m/s 743 mmHg 62%
    12:00 +10°C° 0 mm 7 m/s 742 mmHg 58%
    13:00 +10°C° 0 mm 7 m/s 742 mmHg 55%
    14:00 +11°C° 0 mm 7 m/s 742 mmHg 51%
    15:00 +11°C° 0 mm 6 m/s 742 mmHg 52%
    16:00 +11°C° 0 mm 6 m/s 741 mmHg 53%
    17:00 +10°C° 0 mm 5 m/s 741 mmHg 54%
    18:00 +10°C° 0 mm 4 m/s 741 mmHg 60%
    19:00 +8°C° 0 mm 3 m/s 741 mmHg 66%
    20:00 +7°C° 0 mm 2 m/s 741 mmHg 72%
    21:00 +6°C° 0 mm 2 m/s 740 mmHg 72%
    22:00 +6°C° 0 mm 2 m/s 740 mmHg 73%
    23:00 +6°C° 0 mm 2 m/s 740 mmHg 73%

    31 Março, Domingo

    Tempo Temperatura Precipitação Vento Pressão Humidade
    00:00 +5°C° 0 mm 3 m/s 739 mmHg 77%
    01:00 +5°C° 0 mm 3 m/s 739 mmHg 80%
    02:00 +5°C° 0 mm 3 m/s 738 mmHg 84%
    03:00 +5°C° 0 mm 3 m/s 738 mmHg 85%
    04:00 +6°C° 0 mm 4 m/s 737 mmHg 86%
    05:00 +6°C° 0 mm 4 m/s 737 mmHg 87%
    06:00 +7°C° 0 mm 4 m/s 737 mmHg 84%
    07:00 +7°C° 0 mm 5 m/s 736 mmHg 82%
    08:00 +7°C° 0 mm 5 m/s 736 mmHg 79%
    09:00 +9°C° 0 mm 6 m/s 736 mmHg 72%
    10:00 +10°C° 0 mm 6 m/s 736 mmHg 65%
    11:00 +12°C° 0 mm 7 m/s 735 mmHg 57%
    12:00 +12°C° 0.2 mm 7 m/s 735 mmHg 56%
    13:00 +14°C° 0.2 mm 7 m/s 735 mmHg 54%
    14:00 +14°C° 0.2 mm 7 m/s 734 mmHg 53%
    15:00 +11°C° 0.4 mm 7 m/s 734 mmHg 61%
    16:00 +10°C° 0.4 mm 7 m/s 734 mmHg 70%
    17:00 +8°C° 0.4 mm 6 m/s 734 mmHg 78%
    18:00 +7°C° 0.1 mm 6 m/s 734 mmHg 76%
    19:00 +5°C° 0.1 mm 5 m/s 735 mmHg 74%
    20:00 +3°C° 0.1 mm 5 m/s 735 mmHg 72%
    21:00 +2°C° 0 mm 6 m/s 736 mmHg 75%
    22:00 +1°C° 0 mm 6 m/s 736 mmHg 77%
    23:00 -1°C° 0 mm 7 m/s 737 mmHg 79%

    1 Abril, Segunda-feira

    Tempo Temperatura Precipitação Vento Pressão Humidade
    00:00 -1°C° 0 mm 7 m/s 737 mmHg 79%
    01:00 -2°C° 0 mm 6 m/s 738 mmHg 78%
    02:00 -3°C° 0 mm 6 m/s 738 mmHg 77%
    03:00 -3°C° 0 mm 6 m/s 739 mmHg 77%
    04:00 -2°C° 0 mm 5 m/s 739 mmHg 77%
    05:00 -2°C° 0 mm 5 m/s 740 mmHg 76%
    06:00 -2°C° 0 mm 5 m/s 740 mmHg 74%
    07:00 -2°C° 0 mm 6 m/s 741 mmHg 71%
    08:00 -2°C° 0 mm 6 m/s 741 mmHg 69%
    09:00 -1°C° 0 mm 6 m/s 742 mmHg 62%
    10:00 +1°C° 0 mm 6 m/s 742 mmHg 55%
    11:00 +2°C° 0 mm 6 m/s 743 mmHg 48%
    12:00 +3°C° 0 mm 6 m/s 743 mmHg 45%
    13:00 +3°C° 0 mm 5 m/s 743 mmHg 43%
    14:00 +5°C° 0 mm 5 m/s 743 mmHg 40%
    15:00 +5°C° 0 mm 5 m/s 743 mmHg 41%
    16:00 +5°C° 0 mm 5 m/s 743 mmHg 41%
    17:00 +5°C° 0 mm 4 m/s 742 mmHg 41%
    18:00 +3°C° 0 mm 3 m/s 743 mmHg 47%
    19:00 +2°C° 0 mm 3 m/s 743 mmHg 52%
    20:00 +2°C° 0 mm 2 m/s 743 mmHg 58%
    21:00 +2°C° 0 mm 1 m/s 743 mmHg 60%
    22:00 +1°C° 0 mm 1 m/s 743 mmHg 63%
    23:00 +1°C° 0 mm 1 m/s 743 mmHg 66%
    Mostrar mais